Terminal Aerodrome Forecast
Issued by NWS Houston/Galveston, TX

Home | Current Version | Previous Version | Text Only | Print | Product List | Glossary On
Versions: 1 2 3 4 5 6 7 8 9 10 11 12 13 14 15 16 17 18 19 20 21 22 23 24 25 26 27 28 29 30 31 32 33 34 35 36 37 38 39 40
000
FTUS44 KHGX 201120
TAFCLL
TAF
KCLL 201120Z 2012/2112 15007KT P6SM FEW015
     FM201600 17012KT P6SM FEW015 SCT050
     FM202000 15014KT P6SM VCTS BKN060CB
     FM210100 16011KT P6SM FEW030 SCT250
     FM210500 17007KT P6SM SKC
     FM211000 17006KT P6SM SCT015=

USA.gov is the U.S. government's official web portal to all federal, state and local government web resources and services.